カタログに戻る

TDF 2

運用中通信GEO
NORAD 20705·PAYLOAD·🇫🇷 France

打ち上げ Jul 24, 1990 から Guiana Space Centre

Loading…

TLE

最新Source: Space-Track

元期: Sep 13, 2026, 17:48 UTC

1 20705U 90063A   26256.74172791 -.00000134  00000-0  00000-0 0  9990
2 20705  15.2106 357.6910 0042063 328.4576  44.3266  0.98608474133448

AllMySatでTDF 2をリアルタイム追跡

Download on the App Store